Theta_e
309 309 308 308 308 308 308 308 308 309 310 311 313 314 313 314 314 313 316 317 317 315 313 316 315 316 318 322 320 320 321 323 324 322 321 317 317 316 314 316 317 315 316 313 312
310 310 310 310 310 310 310 309 308 308 308 309 311 313 313 313 314 318 316 314 313 313 315 316 318 318 319 322 321 321 325 326 320 319 319 318 316 316 315 315 315 315 312 311 310
311 311 311 311 311 311 311 310 309 308 308 308 308 311 313 313 320 319 318 315 312 313 314 315 316 319 320 322 321 321 322 321 320 319 317 317 317 316 315 316 315 314 313 309 308
311 311 311 311 312 312 312 311 311 310 309 308 307 309 313 317 319 316 314 313 312 312 314 315 317 319 320 323 321 320 320 320 320 317 317 317 317 316 315 315 317 316 316 309 308
313 312 311 311 311 311 311 311 311 310 309 308 307 308 315 319 318 315 312 311 311 313 314 316 317 320 322 320 321 319 319 319 318 317 316 316 315 315 314 314 314 314 313 309 309
314 313 312 311 311 311 311 311 311 310 310 308 308 309 316 316 315 314 312 311 313 313 314 315 317 317 318 317 318 318 317 317 317 316 316 316 316 316 315 313 314 314 310 310 309
312 311 311 311 311 311 311 311 311 310 309 308 309 311 317 315 314 313 313 311 311 313 314 315 316 317 319 320 318 317 316 316 316 316 316 317 315 315 314 315 314 313 312 310 309
313 312 310 309 310 310 310 311 310 309 308 308 311 315 316 315 314 312 311 311 310 311 313 314 314 316 318 316 316 316 317 318 319 317 315 315 316 317 315 314 313 312 311 311 310
314 313 311 310 307 307 309 311 310 308 310 312 314 319 317 313 314 314 312 312 311 312 313 312 315 317 317 316 317 318 318 318 320 317 315 314 316 317 316 317 314 312 311 311 311
314 313 312 311 310 306 306 309 309 308 315 315 316 317 315 316 314 313 311 312 313 313 314 314 315 316 316 316 317 319 318 317 317 316 315 315 315 314 314 314 312 311 310 311 311
315 314 313 312 311 308 307 308 314 317 314 317 317 316 315 314 313 312 310 312 313 314 314 315 315 315 315 316 317 317 317 317 317 317 316 315 316 315 315 313 312 313 313 312 311
316 315 313 313 311 308 312 312 313 311 312 311 312 314 315 315 317 315 310 311 313 314 313 316 316 316 316 316 316 316 316 316 316 315 315 314 315 315 314 314 314 313 313 313 311
317 316 314 314 309 314 312 312 309 312 314 311 311 312 312 314 314 315 310 312 313 314 314 314 316 316 316 316 316 315 315 315 315 315 313 313 314 313 312 313 313 313 313 312 309
318 317 315 314 313 312 312 309 310 310 311 311 313 313 313 313 312 313 311 313 313 314 314 314 314 315 314 314 314 314 314 315 315 315 316 314 315 314 314 313 311 311 310 309 308
321 318 316 313 312 313 310 308 308 311 312 314 310 310 313 312 311 310 307 310 313 314 315 314 314 314 315 314 313 315 313 313 314 316 316 316 315 314 313 312 312 311 311 310 309
323 320 316 313 313 312 309 307 310 309 310 312 313 313 314 313 312 309 309 309 311 312 311 312 311 313 314 311 312 310 313 312 312 312 314 313 314 313 313 313 312 310 309 309 310
323 322 318 314 315 312 309 311 309 309 311 313 314 313 314 314 314 310 311 310 311 312 312 312 312 312 310 313 310 311 315 316 318 315 317 313 314 315 314 310 309 309 309 308 308
321 321 319 316 314 313 309 312 311 317 314 313 312 314 315 313 315 313 312 312 310 311 312 316 317 313 309 312 314 311 314 317 317 315 315 313 315 314 313 311 308 308 309 308 307
320 318 315 316 313 311 311 312 319 322 318 316 314 312 313 313 314 315 312 313 312 311 313 313 313 310 310 311 312 313 313 314 315 309 314 315 313 312 312 310 309 309 307 306 306
317 316 314 316 314 310 311 316 317 320 319 315 315 311 312 312 313 314 314 314 313 312 312 314 315 311 306 306 307 309 310 314 314 311 312 312 310 311 313 312 309 309 307 306 306
316 319 315 315 312 311 313 315 318 317 317 318 318 312 309 308 309 310 312 312 313 314 312 313 314 311 306 307 310 307 309 310 311 316 313 313 312 308 312 313 310 308 308 306 306
316 318 311 311 313 312 313 314 314 316 314 312 309 311 315 315 312 312 311 310 308 311 313 313 315 316 313 310 307 309 311 311 313 313 311 313 314 312 308 308 308 307 307 306 307
315 316 308 311 318 315 308 313 313 315 315 315 315 313 312 311 313 314 314 312 310 310 313 312 313 317 314 311 305 307 309 310 311 311 314 315 314 311 311 308 307 306 306 306 305
309 315 309 308 314 316 317 313 314 313 314 314 315 313 313 312 311 312 313 311 310 312 312 312 313 314 316 314 312 311 310 308 310 312 313 313 312 311 311 311 310 310 307 305 304
306 311 310 311 309 313 315 316 316 315 314 315 316 315 313 315 316 314 312 311 311 311 310 309 313 313 313 313 312 313 313 312 312 312 311 310 310 310 311 310 310 310 309 307 307
303 306 302 305 306 308 310 312 314 315 315 315 316 316 314 315 316 316 313 313 314 310 312 310 312 312 313 312 312 312 311 311 311 311 313 312 313 311 309 309 309 309 309 309 308
298 300 300 301 303 305 308 310 311 311 311 313 314 315 315 315 312 313 314 314 314 315 311 310 310 311 314 312 312 314 313 312 312 311 311 312 311 311 311 311 311 310 310 310 309
Wind_Speed
9 10 10 11 12 13 13 14 14 15 14 14 12 7 8 8 8 6 8 7 9 9 3 4 4 6 6 4 3 1 3 5 8 0 0 6 5 6 1 1 3 7 2 5 30
10 11 11 11 12 13 13 13 13 13 14 14 14 11 8 7 11 15 13 10 10 5 3 7 6 9 4 4 4 4 3 5 3 5 3 6 7 6 2 6 6 5 8 11 28
12 12 12 13 13 14 14 14 15 14 13 13 14 12 8 6 5 2 13 17 10 7 5 3 6 5 6 5 6 5 5 1 4 2 3 5 5 6 6 8 7 12 11 15 20
14 15 14 14 14 14 15 15 16 16 16 15 13 10 6 1 5 2 7 13 11 8 4 4 4 3 5 8 9 4 11 8 1 2 1 4 4 6 11 11 2 3 3 17 19
17 17 16 15 15 16 16 17 17 18 17 17 16 9 3 5 6 5 7 10 9 9 8 6 7 7 7 5 2 8 9 6 6 4 5 8 9 8 12 11 14 8 3 15 17
18 20 20 18 17 18 18 19 19 19 20 19 15 7 3 8 5 5 9 10 8 10 9 7 5 3 5 7 6 5 7 10 7 9 7 6 6 5 9 14 14 10 12 11 14
18 21 23 22 20 19 19 19 21 22 23 20 12 6 6 13 6 8 10 8 12 8 9 11 4 4 4 7 5 3 7 9 10 10 5 5 9 14 20 5 8 11 11 12 13
20 23 24 22 24 23 21 18 20 22 21 15 5 6 7 9 6 8 9 6 8 7 7 2 5 4 3 3 4 4 5 4 2 11 6 9 12 11 16 12 14 11 9 9 13
19 21 22 24 26 24 23 21 21 21 13 5 4 5 6 2 4 8 9 5 8 5 4 3 3 4 4 3 5 8 7 10 8 10 8 10 9 4 4 2 7 10 10 11 13
18 21 24 25 25 23 24 21 20 10 3 2 6 2 5 2 5 7 9 8 3 7 4 5 5 4 4 6 9 6 9 9 9 8 7 7 17 13 9 6 11 10 11 13 13
18 19 23 27 27 22 22 8 4 3 5 7 4 5 5 4 7 7 8 9 4 4 7 7 5 12 20 15 17 13 15 15 21 10 9 14 17 18 15 10 11 14 18 15 14
18 18 20 27 28 13 5 1 7 3 9 12 16 11 4 7 5 9 16 9 7 11 8 5 16 19 10 11 7 9 12 19 15 10 9 11 14 11 10 16 18 18 18 20 8
17 17 18 25 20 6 7 3 5 1 5 6 12 7 5 13 9 12 15 6 8 9 15 20 8 18 14 12 13 19 13 19 17 13 4 5 8 12 10 19 19 20 21 17 10
18 16 16 24 6 12 1 8 4 1 4 5 6 1 2 3 5 3 21 7 8 15 11 17 19 19 17 15 10 22 9 11 11 7 10 8 7 9 6 9 10 16 15 11 10
19 15 13 11 13 7 6 7 5 3 7 2 3 0 4 4 2 3 7 3 13 7 5 7 4 7 13 21 11 17 4 4 5 7 7 8 8 9 11 10 13 11 14 14 10
21 17 14 8 5 8 8 6 4 4 9 5 6 6 4 6 1 1 2 3 2 6 13 16 4 2 4 3 1 4 0 4 3 2 9 11 11 5 9 11 6 9 13 16 8
18 20 20 10 2 3 3 2 4 8 2 6 6 7 5 6 7 8 6 6 6 3 7 6 19 4 4 2 2 4 3 3 3 3 12 14 14 20 6 8 10 12 13 7 9
19 17 25 26 14 10 3 2 12 5 17 2 4 7 6 8 8 9 6 7 14 8 4 4 6 16 9 16 8 9 9 5 7 6 20 5 8 6 9 11 12 12 17 10 10
13 20 14 27 19 14 5 4 11 6 8 13 15 15 11 9 6 8 10 9 8 20 11 7 9 3 5 2 9 5 6 4 3 1 5 11 12 8 4 11 11 15 8 9 9
4 5 9 22 30 15 3 14 15 9 7 12 16 8 13 11 10 9 8 5 8 13 19 4 9 6 2 4 3 3 3 2 3 3 8 20 11 15 6 16 9 6 8 7 7
4 3 3 24 27 3 7 12 17 11 12 12 17 14 13 11 15 14 17 18 6 5 17 5 6 3 6 8 9 3 4 5 2 5 10 15 15 6 5 3 9 9 8 9 10
4 5 18 36 5 3 10 9 10 20 8 8 2 10 21 25 23 14 15 13 18 13 2 3 3 6 18 5 3 8 14 13 10 13 4 8 27 6 8 10 10 9 9 8 8
3 3 21 14 7 8 5 11 14 18 16 8 12 15 12 14 10 14 21 32 23 6 1 5 3 4 9 14 4 5 5 7 8 8 17 18 26 8 17 11 8 9 8 8 10
3 4 3 4 9 18 16 11 15 15 23 23 11 8 7 11 17 7 10 10 10 15 13 6 6 15 15 16 13 11 16 9 14 12 24 23 32 33 27 25 24 22 9 11 10
3 4 4 4 7 16 18 12 20 16 20 16 9 26 17 11 17 18 22 27 17 15 4 5 9 20 26 27 31 32 31 30 20 19 21 28 26 29 32 20 25 15 14 8 10
3 3 4 3 8 6 9 16 28 24 24 26 25 22 22 24 26 26 22 19 16 1 12 11 8 16 22 27 32 34 33 33 37 35 35 38 35 35 32 29 29 27 23 20 16
3 1 1 6 9 9 12 10 7 15 16 25 26 26 27 28 29 32 27 24 12 13 12 11 9 8 18 24 24 21 34 37 34 33 33 30 41 46 34 33 36 28 23 22 15
Wind_Direction
1 2 6 10 11 13 14 14 12 10 9 8 5 340 280 275 292 274 245 233 211 237 189 167 192 211 225 229 221 244 279 268 269 315 273 105 196 150 103 193 212 180 353 84 149
346 348 351 355 359 1 2 3 4 2 358 354 353 345 326 281 276 254 245 241 238 224 173 205 210 172 241 213 193 215 233 262 28 359 285 162 216 171 185 209 217 197 115 131 152
329 330 334 339 344 346 348 349 350 350 349 345 343 341 330 314 274 227 219 225 221 205 198 268 292 245 236 226 201 219 231 62 310 306 357 285 221 244 190 245 204 212 192 162 166
329 326 327 329 330 331 334 337 338 338 338 335 333 330 318 320 274 238 203 203 201 193 187 215 236 210 226 227 224 265 245 260 312 87 289 251 281 258 216 230 325 216 210 164 177
335 331 327 322 322 323 325 327 330 329 328 328 325 316 293 223 250 238 186 188 188 179 202 215 232 233 256 272 246 223 262 280 256 181 239 277 258 253 255 243 239 223 158 174 188
336 334 330 325 319 317 319 320 322 321 321 321 316 289 238 247 237 219 196 190 188 190 209 222 238 348 303 259 261 6 303 291 265 216 218 225 257 210 235 235 242 231 194 197 197
329 330 330 326 323 319 312 315 316 316 316 314 306 224 257 244 226 214 200 198 200 211 238 226 279 219 339 258 341 279 300 269 239 216 226 168 271 233 242 249 229 231 216 198 213
331 328 324 328 325 320 313 309 310 310 309 307 281 171 251 217 213 206 188 196 205 220 232 183 214 256 221 351 247 231 234 282 275 171 159 139 269 235 244 205 219 228 241 221 212
336 339 337 334 332 324 310 309 307 303 299 282 164 213 253 163 193 215 199 192 164 162 168 167 211 233 130 204 277 222 252 236 262 176 139 179 254 256 67 160 222 220 232 233 225
329 340 342 334 335 330 315 315 302 285 270 211 270 239 188 191 149 174 189 186 185 151 168 199 210 219 207 198 228 225 226 252 260 198 188 209 250 264 254 245 253 248 242 240 243
321 329 339 339 335 337 335 344 285 218 225 220 190 246 141 131 162 193 179 172 198 220 202 194 185 215 222 214 232 253 264 264 267 254 183 236 240 251 261 255 245 253 258 252 243
311 321 330 334 334 341 345 328 121 220 297 265 261 249 239 188 198 198 169 175 179 210 211 229 226 230 244 253 266 270 269 266 276 294 208 248 251 252 260 262 257 255 262 262 238
305 312 320 331 338 26 324 347 298 79 243 239 227 220 230 177 222 201 174 197 189 206 209 223 197 215 235 252 252 248 249 259 263 283 222 310 269 252 245 249 258 261 255 260 228
297 305 312 330 338 335 26 320 314 227 261 238 194 303 109 253 272 24 189 183 226 221 216 251 241 246 255 250 224 265 235 257 266 284 259 181 283 231 220 227 226 248 256 248 222
286 289 294 322 305 318 303 318 311 279 282 157 153 61 30 220 20 14 345 4 241 202 193 220 202 199 234 241 228 263 207 232 270 265 301 258 281 221 192 232 240 242 254 258 219
274 274 265 288 250 268 299 316 316 245 245 214 141 165 170 188 173 103 268 309 356 276 262 257 124 245 228 72 358 118 86 214 231 213 255 209 216 226 205 213 221 223 240 254 177
292 262 238 222 278 271 264 290 262 226 225 194 206 174 197 192 197 183 180 192 202 193 227 230 234 179 137 189 154 195 141 289 293 195 252 187 222 241 196 177 188 211 234 193 154
291 290 250 224 231 254 64 60 248 210 218 293 172 184 214 184 221 193 216 225 217 239 306 239 272 183 177 208 166 184 183 177 240 251 275 201 250 236 205 217 206 204 236 160 170
288 276 232 227 206 175 123 193 237 249 261 273 293 273 244 207 231 175 218 243 217 195 205 208 245 44 152 124 161 182 203 195 262 115 298 253 267 311 273 238 220 219 166 175 178
278 225 216 228 197 146 157 243 241 232 312 289 271 287 276 238 190 195 205 207 231 204 221 259 262 186 88 46 283 217 165 131 228 253 243 276 279 270 208 233 223 192 205 217 208
280 253 269 191 163 179 211 232 268 251 243 263 253 277 278 292 291 276 253 253 212 235 199 235 230 210 124 205 191 169 237 223 268 193 241 269 273 278 139 153 178 208 205 227 199
200 245 157 156 186 192 225 211 232 260 217 250 185 257 255 266 269 270 281 288 328 354 282 212 235 238 237 233 236 235 221 191 226 237 230 237 262 222 153 164 161 193 198 213 201
248 201 180 184 221 220 273 245 238 258 241 210 229 215 223 249 265 249 250 259 279 289 21 4 319 330 284 278 217 220 227 238 256 262 250 247 262 174 252 250 227 193 208 220 225
296 255 228 237 225 240 242 231 241 236 256 254 257 219 236 240 237 242 251 264 264 278 123 107 238 244 246 249 285 265 270 248 244 243 252 250 260 272 266 272 275 274 249 225 224
229 248 185 214 257 252 239 229 238 235 233 241 230 224 212 235 244 240 247 260 256 243 147 176 233 236 243 248 259 258 262 275 268 266 264 275 268 272 272 268 265 267 270 249 264
279 320 4 314 305 273 263 260 252 249 251 246 235 236 219 231 231 250 223 228 235 126 211 179 241 227 233 236 243 252 257 260 256 255 247 250 266 258 265 276 276 272 273 277 275
268 143 352 272 278 282 261 268 272 279 271 277 273 269 254 238 236 240 251 250 241 216 208 178 203 202 244 231 237 244 238 243 252 247 246 246 241 253 258 256 262 271 276 275 263